NOZ164 ENBR-ENVA

Flight info

Callsign NOZ164
Flight time 0h 55m
Altitude 37000
Route INTUM DCT NELSU
Aircraft B738/M-SDE2E3FGHIRWXY/LB1

Departure

Time 2026-05-06 19:25
Airport Bergen Airport, Flesland (ENBR)

Arrival

Time 2026-05-06 20:21
Airport Trondheim Airport, Værnes (ENVA)
Time Latitude Longitude Altitude Speed Heading
2026-05-06 18:58 60.28820 5.22878 172 ft 0 kts 80°
2026-05-06 18:59 60.28819 5.22876 172 ft 0 kts 80°
2026-05-06 19:17 60.28819 5.22869 172 ft 3 kts 80°
2026-05-06 19:18 60.28814 5.22816 172 ft 4 kts 80°
2026-05-06 19:18 60.28813 5.22799 172 ft 0 kts 80°
2026-05-06 19:20 60.28810 5.22805 172 ft 2 kts 130°
2026-05-06 19:20 60.28772 5.22766 172 ft 9 kts 213°
2026-05-06 19:21 60.28718 5.22639 168 ft 16 kts 258°
2026-05-06 19:21 60.28692 5.22403 164 ft 18 kts 283°
2026-05-06 19:21 60.28772 5.22329 161 ft 22 kts 353°
2026-05-06 19:21 60.28938 5.22275 161 ft 27 kts 350°
2026-05-06 19:22 60.29128 5.22206 162 ft 27 kts 349°
2026-05-06 19:22 60.29309 5.22149 160 ft 26 kts 350°
2026-05-06 19:22 60.29507 5.22078 154 ft 31 kts 349°
2026-05-06 19:22 60.29734 5.21999 147 ft 34 kts 352°
2026-05-06 19:23 60.29959 5.21928 154 ft 31 kts 350°
2026-05-06 19:23 60.30162 5.21868 163 ft 29 kts 349°
2026-05-06 19:23 60.30339 5.21802 169 ft 16 kts 349°
2026-05-06 19:23 60.30439 5.21738 172 ft 14 kts 307°
2026-05-06 19:24 60.30441 5.21658 172 ft 2 kts 261°
2026-05-06 19:24 60.30422 5.21526 170 ft 15 kts 248°
2026-05-06 19:24 60.30370 5.21472 167 ft 0 kts 173°
2026-05-06 19:24 60.30342 5.21480 166 ft 26 kts 171°
2026-05-06 19:25 60.29862 5.21649 155 ft 111 kts 170°
2026-05-06 19:25 60.28879 5.21968 224 ft 171 kts 173°
2026-05-06 19:25 60.27655 5.22364 1056 ft 180 kts 171°
2026-05-06 19:25 60.26447 5.22714 2214 ft 172 kts 176°
2026-05-06 19:26 60.25188 5.23059 2790 ft 198 kts 173°
2026-05-06 19:26 60.23727 5.23508 3085 ft 226 kts 172°
2026-05-06 19:26 60.22121 5.24071 3587 ft 239 kts 172°
2026-05-06 19:26 60.20468 5.24651 4292 ft 243 kts 172°
2026-05-06 19:27 60.18787 5.25237 4976 ft 250 kts 172°
2026-05-06 19:27 60.17004 5.25851 5514 ft 266 kts 172°
2026-05-06 19:27 60.15173 5.26482 6433 ft 270 kts 172°
2026-05-06 19:27 60.13393 5.27095 7301 ft 273 kts 172°
2026-05-06 19:28 60.11587 5.28406 8134 ft 283 kts 146°
2026-05-06 19:28 60.10293 5.31394 8991 ft 291 kts 115°
2026-05-06 19:28 60.09902 5.35353 9866 ft 293 kts 84°
2026-05-06 19:28 60.10262 5.39383 10628 ft 297 kts 71°
2026-05-06 19:29 60.11261 5.42984 11317 ft 297 kts 43°
2026-05-06 19:29 60.12962 5.45276 11886 ft 301 kts 15°
2026-05-06 19:29 60.15070 5.45894 12095 ft 316 kts 354°
2026-05-06 19:29 60.17328 5.45511 12377 ft 335 kts 350°
2026-05-06 19:30 60.19674 5.44976 13024 ft 342 kts 349°
2026-05-06 19:30 60.22026 5.44445 13824 ft 345 kts 349°
2026-05-06 19:30 60.24428 5.43933 14503 ft 349 kts 349°
2026-05-06 19:30 60.26867 5.43442 15127 ft 353 kts 348°
2026-05-06 19:31 60.29323 5.42963 15833 ft 356 kts 348°
2026-05-06 19:31 60.31800 5.42481 16458 ft 359 kts 348°
2026-05-06 19:31 60.36821 5.41502 17846 ft 364 kts 346°
2026-05-06 19:32 60.39352 5.41087 18525 ft 368 kts 351°
2026-05-06 19:32 60.41928 5.41001 18913 ft 368 kts 344°
2026-05-06 19:32 60.44442 5.40116 19362 ft 368 kts 341°
2026-05-06 19:32 60.47060 5.40010 19868 ft 392 kts
2026-05-06 19:33 60.49702 5.41883 20347 ft 409 kts 14°
2026-05-06 19:33 60.52314 5.44304 20708 ft 417 kts 16°
2026-05-06 19:33 60.54954 5.46845 21111 ft 420 kts 16°
2026-05-06 19:33 60.57610 5.49367 21539 ft 422 kts 15°
2026-05-06 19:34 60.60258 5.51822 21943 ft 425 kts 15°
2026-05-06 19:34 60.62964 5.54287 22336 ft 427 kts 15°
2026-05-06 19:34 60.65693 5.56738 22847 ft 428 kts 14°
2026-05-06 19:34 60.68434 5.59175 23218 ft 431 kts 13°
2026-05-06 19:35 60.71200 5.61624 23587 ft 434 kts 13°
2026-05-06 19:35 60.73977 5.64074 23884 ft 436 kts 13°
2026-05-06 19:35 60.76769 5.66580 24189 ft 439 kts 14°
2026-05-06 19:35 60.79575 5.69103 24447 ft 441 kts 14°
2026-05-06 19:36 60.82389 5.71632 24718 ft 443 kts 14°
2026-05-06 19:36 60.85222 5.74182 25010 ft 445 kts 14°
2026-05-06 19:36 60.88066 5.76738 25263 ft 447 kts 15°
2026-05-06 19:36 60.90921 5.79308 25492 ft 449 kts 15°
2026-05-06 19:37 60.93791 5.81907 25912 ft 449 kts 18°
2026-05-06 19:37 60.96616 5.84620 26265 ft 449 kts 19°
2026-05-06 19:37 60.99406 5.87635 26402 ft 459 kts 26°
2026-05-06 19:37 61.02031 5.91506 26594 ft 466 kts 33°
2026-05-06 19:38 61.04543 5.95774 26840 ft 469 kts 35°
2026-05-06 19:38 61.07019 6.00157 27078 ft 470 kts 36°
2026-05-06 19:38 61.09512 6.04556 27279 ft 472 kts 35°
2026-05-06 19:38 61.12032 6.08904 27494 ft 473 kts 34°
2026-05-06 19:39 61.14552 6.13161 27656 ft 474 kts 34°
2026-05-06 19:39 61.17134 6.17453 27842 ft 476 kts 33°
2026-05-06 19:39 61.19728 6.21727 28049 ft 477 kts 34°
2026-05-06 19:39 61.22323 6.25990 28392 ft 474 kts 34°
2026-05-06 19:40 61.24785 6.30035 28710 ft 472 kts 34°
2026-05-06 19:40 61.27365 6.34280 28937 ft 474 kts 34°
2026-05-06 19:40 61.32540 6.42826 29006 ft 476 kts 34°
2026-05-06 19:41 61.37695 6.51394 28994 ft 473 kts 34°
2026-05-06 19:41 61.42833 6.59975 28988 ft 472 kts 34°
2026-05-06 19:42 61.47959 6.68571 28997 ft 472 kts 34°
2026-05-06 19:42 61.52818 6.76753 28990 ft 472 kts 34°
2026-05-06 19:43 61.57877 6.85309 28987 ft 473 kts 34°
2026-05-06 19:43 61.63002 6.94015 28987 ft 473 kts 35°
2026-05-06 19:44 61.68051 7.02628 29006 ft 474 kts 35°
2026-05-06 19:44 61.72053 7.09485 28990 ft 475 kts 35°
2026-05-06 19:45 61.77183 7.18313 28981 ft 476 kts 36°
2026-05-06 19:45 61.81272 7.25370 28969 ft 476 kts 36°
2026-05-06 19:46 61.86365 7.34207 28977 ft 476 kts 36°
2026-05-06 19:46 61.91486 7.43114 28984 ft 476 kts 36°
2026-05-06 19:47 61.96602 7.52055 28965 ft 476 kts 36°
2026-05-06 19:47 62.01703 7.61015 29020 ft 475 kts 36°
2026-05-06 19:48 62.06793 7.69997 28953 ft 474 kts 37°
2026-05-06 19:48 62.11859 7.78977 28978 ft 472 kts 37°
2026-05-06 19:49 62.16868 7.87896 28967 ft 471 kts 37°
2026-05-06 19:49 62.21888 7.96876 28975 ft 470 kts 37°
2026-05-06 19:50 62.26903 8.05882 28950 ft 470 kts 37°
2026-05-06 19:50 62.31917 8.14929 28998 ft 471 kts 37°
2026-05-06 19:51 62.36939 8.24033 28974 ft 473 kts 37°
2026-05-06 19:51 62.41966 8.33188 28963 ft 473 kts 38°
2026-05-06 19:52 62.46991 8.42382 28963 ft 473 kts 38°
2026-05-06 19:52 62.52009 8.51602 28979 ft 473 kts 38°
2026-05-06 19:53 62.57021 8.60855 29023 ft 473 kts 38°
2026-05-06 19:53 62.62022 8.70130 28977 ft 472 kts 38°
2026-05-06 19:54 62.66998 8.79405 28983 ft 470 kts 38°
2026-05-06 19:54 62.71920 8.88615 28986 ft 468 kts 38°
2026-05-06 19:55 62.76852 8.97889 28975 ft 468 kts 38°
2026-05-06 19:55 62.81780 9.07198 28988 ft 469 kts 38°
2026-05-06 19:56 62.86712 9.16556 28994 ft 470 kts 39°
2026-05-06 19:56 62.89167 9.21233 28692 ft 465 kts 39°
2026-05-06 19:56 62.91516 9.25719 28251 ft 457 kts 39°
2026-05-06 19:57 62.93895 9.30272 27764 ft 450 kts 39°
2026-05-06 19:57 62.96241 9.34770 27262 ft 444 kts 39°
2026-05-06 19:57 62.98553 9.39214 26754 ft 439 kts 39°
2026-05-06 19:57 63.00841 9.43618 26267 ft 434 kts 39°
2026-05-06 19:58 63.03102 9.47979 25767 ft 430 kts 39°
2026-05-06 19:58 63.05337 9.52298 25278 ft 426 kts 39°
2026-05-06 19:58 63.07555 9.56594 24800 ft 422 kts 40°
2026-05-06 19:58 63.09661 9.61050 24304 ft 419 kts 51°
2026-05-06 19:59 63.11086 9.66618 23855 ft 416 kts 70°
2026-05-06 19:59 63.11734 9.72800 23391 ft 410 kts 82°
2026-05-06 19:59 63.12150 9.79001 22835 ft 406 kts 82°
2026-05-06 19:59 63.12550 9.85147 22354 ft 400 kts 82°
2026-05-06 20:00 63.12964 9.91176 21910 ft 394 kts 81°
2026-05-06 20:00 63.13386 9.97127 21467 ft 389 kts 82°
2026-05-06 20:00 63.13786 10.02918 21029 ft 384 kts 82°
2026-05-06 20:00 63.14190 10.08735 20583 ft 380 kts 82°
2026-05-06 20:01 63.14591 10.14465 20148 ft 376 kts 82°
2026-05-06 20:01 63.14987 10.20155 19728 ft 372 kts 82°
2026-05-06 20:01 63.15377 10.25788 19271 ft 369 kts 82°
2026-05-06 20:01 63.15762 10.31365 18833 ft 366 kts 82°
2026-05-06 20:02 63.16141 10.36905 18403 ft 363 kts 82°
2026-05-06 20:02 63.16516 10.42403 17937 ft 360 kts 82°
2026-05-06 20:02 63.16884 10.47846 17508 ft 356 kts 82°
2026-05-06 20:02 63.17249 10.53231 17085 ft 352 kts 82°
2026-05-06 20:03 63.17607 10.58571 16663 ft 349 kts 82°
2026-05-06 20:03 63.17959 10.63861 16236 ft 346 kts 82°
2026-05-06 20:03 63.18306 10.69106 15838 ft 343 kts 82°
2026-05-06 20:03 63.18647 10.74313 15402 ft 340 kts 82°
2026-05-06 20:04 63.18984 10.79478 15013 ft 338 kts 82°
2026-05-06 20:04 63.19318 10.84622 14597 ft 336 kts 82°
2026-05-06 20:04 63.19647 10.89714 14201 ft 334 kts 82°
2026-05-06 20:04 63.19974 10.94804 13781 ft 333 kts 83°
2026-05-06 20:05 63.20297 10.99862 13414 ft 329 kts 83°
2026-05-06 20:05 63.20611 11.04803 13294 ft 320 kts 83°
2026-05-06 20:05 63.20917 11.09651 13153 ft 315 kts 83°
2026-05-06 20:05 63.21219 11.14444 13025 ft 314 kts 83°
2026-05-06 20:06 63.21515 11.19190 12888 ft 307 kts 83°
2026-05-06 20:06 63.21803 11.23806 12765 ft 297 kts 83°
2026-05-06 20:06 63.22081 11.28288 12646 ft 288 kts 83°
2026-05-06 20:06 63.22260 11.31192 12560 ft 283 kts 83°
2026-05-06 20:07 63.22520 11.35444 12441 ft 275 kts 83°
2026-05-06 20:07 63.22772 11.39590 12342 ft 266 kts 84°
2026-05-06 20:07 63.22756 11.43665 11997 ft 266 kts 101°
2026-05-06 20:07 63.22321 11.48967 11656 ft 263 kts 101°
2026-05-06 20:08 63.22019 11.52949 11383 ft 262 kts 100°
2026-05-06 20:08 63.21837 11.55644 11190 ft 261 kts 95°
2026-05-06 20:08 63.22084 11.59595 10943 ft 260 kts 73°
2026-05-06 20:08 63.22616 11.63405 10688 ft 258 kts 74°
2026-05-06 20:09 63.23124 11.67215 10437 ft 257 kts 75°
2026-05-06 20:09 63.23628 11.70956 10174 ft 256 kts 70°
2026-05-06 20:09 63.24588 11.74232 9959 ft 253 kts 47°
2026-05-06 20:09 63.25765 11.77124 9695 ft 252 kts 49°
2026-05-06 20:10 63.26917 11.80037 9418 ft 251 kts 49°
2026-05-06 20:10 63.28061 11.82934 9184 ft 248 kts 46°
2026-05-06 20:10 63.29453 11.85094 8982 ft 242 kts 22°
2026-05-06 20:10 63.30994 11.86560 8745 ft 240 kts 22°
2026-05-06 20:11 63.32561 11.87716 8494 ft 236 kts
2026-05-06 20:11 63.34122 11.87016 8301 ft 230 kts 329°
2026-05-06 20:11 63.35276 11.84599 7939 ft 230 kts 303°
2026-05-06 20:11 63.36150 11.81611 7688 ft 230 kts 301°
2026-05-06 20:12 63.37006 11.78600 7416 ft 229 kts 301°
2026-05-06 20:12 63.37855 11.75608 7157 ft 228 kts 301°
2026-05-06 20:12 63.38705 11.72618 6918 ft 228 kts 301°
2026-05-06 20:12 63.39555 11.69631 6656 ft 228 kts 301°
2026-05-06 20:13 63.40405 11.66648 6412 ft 227 kts 301°
2026-05-06 20:13 63.41253 11.63677 6163 ft 226 kts 301°
2026-05-06 20:13 63.42087 11.60770 5912 ft 224 kts 301°
2026-05-06 20:13 63.42911 11.57831 5674 ft 222 kts 301°
2026-05-06 20:14 63.43745 11.54944 5449 ft 220 kts 303°
2026-05-06 20:14 63.44592 11.52115 5222 ft 218 kts 301°
2026-05-06 20:14 63.45340 11.49219 4959 ft 212 kts 287°
2026-05-06 20:14 63.45483 11.46052 4807 ft 198 kts 271°
2026-05-06 20:15 63.45627 11.43061 4566 ft 188 kts 278°
2026-05-06 20:15 63.45742 11.40234 4355 ft 177 kts 272°
2026-05-06 20:15 63.45759 11.37551 4155 ft 169 kts 270°
2026-05-06 20:15 63.45759 11.34981 3998 ft 161 kts 270°
2026-05-06 20:16 63.45756 11.32415 3964 ft 167 kts 270°
2026-05-06 20:16 63.45753 11.29808 3775 ft 168 kts 270°
2026-05-06 20:16 63.45750 11.27232 3516 ft 164 kts 270°
2026-05-06 20:16 63.45747 11.24731 3321 ft 151 kts 270°
2026-05-06 20:17 63.45745 11.22409 3069 ft 152 kts 270°
2026-05-06 20:17 63.45744 11.20071 2826 ft 149 kts 270°
2026-05-06 20:17 63.45743 11.17760 2578 ft 147 kts 270°
2026-05-06 20:17 63.45742 11.15467 2349 ft 148 kts 270°
2026-05-06 20:18 63.45742 11.13164 2121 ft 149 kts 269°
2026-05-06 20:18 63.45743 11.10855 1877 ft 147 kts 270°
2026-05-06 20:18 63.45745 11.08545 1539 ft 149 kts 269°
2026-05-06 20:18 63.45740 11.06244 1323 ft 148 kts 268°
2026-05-06 20:19 63.45748 11.03921 1091 ft 146 kts 268°
2026-05-06 20:19 63.45757 11.01615 836 ft 151 kts 268°
2026-05-06 20:19 63.45760 10.99287 635 ft 150 kts 268°
2026-05-06 20:19 63.45748 10.96949 396 ft 150 kts 268°
2026-05-06 20:20 63.45759 10.94639 136 ft 152 kts 268°
2026-05-06 20:20 63.45756 10.92376 41 ft 130 kts 270°
2026-05-06 20:20 63.45764 10.90704 33 ft 81 kts 269°
2026-05-06 20:20 63.45767 10.89746 29 ft 54 kts 272°
2026-05-06 20:21 63.45739 10.89290 28 ft 22 kts 219°
2026-05-06 20:21 63.45626 10.89283 28 ft 13 kts 148°
2026-05-06 20:21 63.45600 10.89466 28 ft 14 kts 87°
2026-05-06 20:21 63.45598 10.89761 28 ft 24 kts 101°
2026-05-06 20:22 63.45588 10.90119 30 ft 24 kts 80°
2026-05-06 20:22 63.45599 10.90546 33 ft 32 kts 90°
2026-05-06 20:22 63.45595 10.91075 34 ft 30 kts 91°
2026-05-06 20:22 63.45550 10.91371 37 ft 11 kts 183°
2026-05-06 20:23 63.45512 10.91370 38 ft 3 kts 180°
2026-05-06 20:23 63.45502 10.91369 38 ft 1 kts 180°
2026-05-06 20:23 63.45501 10.91369 38 ft 0 kts 180°